DW9679 Alicante ES current weather conditions

sailwx.info

Wind from 079 at 3 knots gusting 9

Air temperature 27.8° C
Dewpoint 22.7° C

Last reported at 2019-Sep-15 15:03 UTC.
Time now 2019-Sep-15 15:59 UTC

Location: N 38°15' W 000°35'.
View on Google Maps.

See reports from other nearby stations

  
Tides and Currents Weather Stations Pressure Air Temp Water Temp Dewpoint Dewpoint Depression Visibility Wind Speed Wind Dir Waves Ship Positions
date/time (UTC)wind fromknots sea level pressurealtimeterstation pressurevisibilityair tempwater tempwave heightnotes
2019-Sep-15 15:03 079 3 gusting 9 27.8
2019-Sep-15 14:58 037 1 gusting 8 27.8
2019-Sep-15 14:53 183 2 gusting 8 27.8
2019-Sep-15 14:48 187 4 gusting 7 27.8
2019-Sep-15 14:43 078 3 gusting 7 27.8
2019-Sep-15 14:38 026 2 gusting 12 27.8
2019-Sep-15 14:33 153 2 gusting 12 27.8
2019-Sep-15 14:28 075 3 gusting 7 27.8
2019-Sep-15 14:23 110 3 gusting 7 27.8
2019-Sep-15 14:18 027 3 gusting 8 27.8
2019-Sep-15 14:13 032 4 gusting 9 27.8
2019-Sep-15 14:08 091 2 gusting 9 27.8
2019-Sep-15 14:03 294 3 gusting 10 27.8
2019-Sep-15 13:58 271 3 gusting 7 27.8
2019-Sep-15 13:53 103 2 gusting 6 27.8
2019-Sep-15 13:48 129 3 gusting 6 27.8
2019-Sep-15 13:43 329 1 gusting 8 27.8
2019-Sep-15 13:38 173 4 gusting 9 27.8
2019-Sep-15 13:33 040 2 gusting 9 27.8
2019-Sep-15 13:28 322 2 gusting 9 27.8
2019-Sep-15 13:23 333 2 gusting 6 28.3
2019-Sep-15 13:18 058 2 gusting 7 27.8
2019-Sep-15 13:13 086 3 gusting 9 28.3
2019-Sep-15 13:08 096 3 gusting 6 27.8
2019-Sep-15 13:03 346 2 gusting 8 28.3
2019-Sep-15 12:58 149 2 gusting 8 27.8
2019-Sep-15 12:53 354 1 gusting 8 27.8
2019-Sep-15 12:48 057 2 gusting 8 27.8
2019-Sep-15 12:43 040 3 gusting 7 27.8
2019-Sep-15 12:38 217 2 gusting 9 27.8
2019-Sep-15 12:33 100 4 gusting 9 27.8
2019-Sep-15 12:28 104 2 gusting 6 28.3
2019-Sep-15 12:18 075 2 gusting 7 28.3
2019-Sep-15 12:13 105 3 gusting 7 28.3
2019-Sep-15 12:08 056 2 gusting 9 28.3
2019-Sep-15 12:03 114 4 gusting 9 28.3
2019-Sep-15 11:59 068 1 gusting 6 28.3
2019-Sep-15 11:53 082 1 gusting 8 28.3
2019-Sep-15 11:48 321 3 gusting 8 27.8
2019-Sep-15 11:43 312 2 gusting 6 27.8
2019-Sep-15 11:38 040 1 gusting 6 27.8
2019-Sep-15 11:33 044 3 gusting 7 27.8
2019-Sep-15 11:28 127 3 gusting 8 28.3
2019-Sep-15 11:23 088 2 gusting 6 28.3
2019-Sep-15 09:48 343 3 gusting 8 27.8
2019-Sep-15 09:43 333 1 gusting 7 27.2
2019-Sep-15 09:38 359 3 gusting 7 27.2
2019-Sep-15 09:33 342 0 gusting 4 27.2
2019-Sep-15 09:28 347 1 gusting 6 27.2
2019-Sep-15 09:23 082 0 gusting 6 27.2
2019-Sep-15 09:18 278 2 gusting 6 27.2
2019-Sep-15 09:13 047 0 gusting 6 26.7
2019-Sep-15 09:08 359 1 gusting 5 26.7
2019-Sep-14 19:33 072 1 gusting 6 23.9
2019-Sep-14 19:28 065 2 gusting 6 23.9
2019-Sep-14 19:23 149 0 gusting 6 23.9
2019-Sep-14 19:18 078 0 gusting 5 23.9
2019-Sep-14 19:13 054 0 gusting 5 23.3
2019-Sep-14 19:08 091 23.3
2019-Sep-14 19:03 089 23.9
2019-Sep-14 18:58 131 23.9
2019-Sep-14 18:53 060 23.9
2019-Sep-14 18:48 115 23.9
2019-Sep-14 18:43 085 0 gusting 2 23.9
2019-Sep-14 18:38 117 23.9
2019-Sep-14 18:33 020 23.9
2019-Sep-14 18:28 015 23.9
2019-Sep-14 18:23 075 23.9
2019-Sep-14 18:18 099 23.9
2019-Sep-14 18:13 019 23.9
2019-Sep-14 18:08 086 24.4
2019-Sep-14 18:03 067 0 gusting 2 24.4
2019-Sep-14 17:58 088 24.4
2019-Sep-14 17:53 113 24.4
2019-Sep-14 17:48 058 0 gusting 3 25.0
2019-Sep-14 17:43 044 25.0
2019-Sep-14 17:38 046 0 gusting 3 25.0
2019-Sep-14 17:34 253 0 gusting 2 25.0
2019-Sep-14 17:28 101 25.0
2019-Sep-14 17:23 006 25.6
2019-Sep-14 17:18 330 0 gusting 2 25.6
2019-Sep-14 17:13 012 25.6
2019-Sep-14 17:03 011 25.6
2019-Sep-14 16:58 018 25.6
2019-Sep-14 16:53 044 25.6
2019-Sep-14 16:48 022 0 gusting 4 25.6
2019-Sep-14 16:43 110 1 gusting 5 25.6
2019-Sep-14 16:38 025 2 gusting 7 25.6
2019-Sep-14 16:33 015 2 gusting 7 25.6
2019-Sep-14 16:28 356 3 gusting 7 25.6
2019-Sep-14 16:23 053 1 gusting 7 25.6
2019-Sep-14 16:18 350 2 gusting 6 25.6
2019-Sep-14 16:13 105 2 gusting 6 25.6
2019-Sep-14 16:08 321 2 gusting 6 25.6
2019-Sep-14 16:03 029 2 gusting 6 25.6
2019-Sep-14 15:58 086 1 gusting 8 25.6
2019-Sep-14 15:53 102 2 gusting 8 25.6
2019-Sep-14 15:48 108 5 gusting 12 25.6
2019-Sep-14 15:43 075 3 gusting 12 25.6
2019-Sep-14 15:38 070 4 gusting 9 25.6
2019-Sep-14 15:33 005 3 gusting 7 25.6
2019-Sep-14 15:28 170 1 gusting 6 25.6
2019-Sep-14 15:23 086 2 gusting 5 25.0
2019-Sep-14 15:18 332 0 gusting 6 25.0
2019-Sep-14 15:13 330 1 gusting 6 25.0
2019-Sep-14 15:08 356 0 gusting 5 25.0
2019-Sep-14 15:03 322 0 gusting 4 25.0
2019-Sep-14 14:58 293 25.0
2019-Sep-14 14:54 360 25.0
2019-Sep-14 14:48 016 1 gusting 5 25.0
2019-Sep-14 14:43 022 2 gusting 5 25.0
2019-Sep-14 14:38 035 0 gusting 5 25.0
2019-Sep-14 14:33 357 25.0
2019-Sep-14 14:28 287 0 gusting 3 25.0
2019-Sep-14 14:23 060 25.0
2019-Sep-14 14:18 360 25.0
2019-Sep-14 14:13 354 25.0
2019-Sep-14 14:08 026 25.0
2019-Sep-14 14:03 344 0 gusting 3 25.0
2019-Sep-14 13:58 337 25.0
2019-Sep-14 13:53 018 1 gusting 5 25.0
2019-Sep-14 13:48 044 25.0
2019-Sep-14 13:43 344 1 gusting 6 25.0
2019-Sep-14 13:38 015 1 gusting 6 25.0
2019-Sep-14 13:33 006 25.0
2019-Sep-14 13:28 332 0 gusting 4 25.0
2019-Sep-14 13:23 088 25.0
2019-Sep-14 13:18 311 2 gusting 8 25.0
2019-Sep-14 13:13 019 0 gusting 6 25.0
2019-Sep-14 13:08 011 3 gusting 6 25.0
2019-Sep-14 13:04 315 0 gusting 5 25.0
2019-Sep-14 12:58 108 1 gusting 5 25.0
2019-Sep-14 12:53 036 1 gusting 5 25.0
2019-Sep-14 12:48 072 1 gusting 5 25.0
2019-Sep-14 12:43 137 0 gusting 4 24.4
2019-Sep-14 12:38 354 0 gusting 4 24.4
2019-Sep-14 12:33 095 24.4
2019-Sep-14 12:28 039 0 gusting 5 24.4
2019-Sep-14 12:23 343 2 gusting 5 24.4
2019-Sep-14 12:18 117 0 gusting 4 24.4
2019-Sep-14 12:13 088 0 gusting 3 24.4
2019-Sep-14 10:48 325 0 gusting 4 23.9
2019-Sep-14 10:43 077 1 gusting 4 23.9
2019-Sep-14 10:38 095 0 gusting 4 23.9
2019-Sep-14 10:33 098 0 gusting 3 23.9
2019-Sep-14 10:28 333 23.9
2019-Sep-14 10:18 325 23.9
2019-Sep-14 10:13 338 23.9
2019-Sep-14 10:08 124 23.9
2019-Sep-14 10:03 355 23.9
2019-Sep-14 09:58 005 23.9
2019-Sep-14 09:53 027 23.9
2019-Sep-14 09:48 335 0 gusting 1 23.9
2019-Sep-14 09:43 333 23.9
2019-Sep-14 09:38 077 23.9
2019-Sep-14 09:33 252 23.9
2019-Sep-14 09:28 277 23.9
2019-Sep-14 09:23 255 24.4
2019-Sep-14 09:18 257 24.4
2019-Sep-14 09:13 259 24.4
2019-Sep-14 09:08 248 23.9
2019-Sep-14 09:03 248 23.9
2019-Sep-14 08:58 088 23.9
2019-Sep-14 08:53 088 23.3
2019-Sep-14 08:48 250 23.3
2019-Sep-14 08:43 332 23.3
2019-Sep-14 08:38 240 23.3
2019-Sep-14 08:33 250 23.3
2019-Sep-14 08:28 232 23.3
2019-Sep-14 08:23 240 23.3
2019-Sep-14 08:18 255 23.3
2019-Sep-14 08:13 015 22.8
2019-Sep-14 08:08 257 22.8
2019-Sep-14 08:03 347 22.2
2019-Sep-14 07:58 266 22.2
2019-Sep-14 07:53 264 21.7
2019-Sep-14 07:48 006 21.1
2019-Sep-14 07:43 243 21.1
2019-Sep-14 07:38 243 20.6
2019-Sep-14 07:33 235 20.6
2019-Sep-14 07:28 245 20.6
2019-Sep-14 07:23 248 20.0
2019-Sep-14 07:18 245 20.0
2019-Sep-14 07:13 248 19.4
2019-Sep-14 07:08 233 19.4
2019-Sep-14 07:03 249 19.4
2019-Sep-14 06:58 238 19.4
2019-Sep-14 06:53 259 19.4
2019-Sep-14 06:48 243 19.4
2019-Sep-14 06:43 257 19.4
2019-Sep-14 06:38 339 20.0
2019-Sep-14 06:33 339 20.0
2019-Sep-14 06:28 302 20.0
2019-Sep-14 06:23 067 20.0
2019-Sep-14 06:18 360 20.0
2019-Sep-14 06:13 054 0 gusting 1 20.0
2019-Sep-14 06:08 013 0 gusting 2 20.0
2019-Sep-14 06:03 051 0 gusting 4 20.0
2019-Sep-14 05:58 323 0 gusting 4 20.0
2019-Sep-14 05:53 348 0 gusting 3 20.0
2019-Sep-14 05:48 339 19.4
2019-Sep-14 05:43 001 19.4
2019-Sep-14 05:38 360 19.4
2019-Sep-14 05:33 350 19.4
2019-Sep-14 05:28 317 0 gusting 5 19.4
2019-Sep-14 05:23 299 1 gusting 7 19.4
2019-Sep-14 05:18 358 4 gusting 7 19.4
2019-Sep-14 05:13 359 2 gusting 6 19.4
2019-Sep-14 05:08 011 3 gusting 6 19.4
2019-Sep-14 05:03 065 3 gusting 6 18.9
2019-Sep-14 04:58 005 2 gusting 6 18.3
2019-Sep-14 04:53 226 3 gusting 6 18.3
2019-Sep-14 04:48 060 2 gusting 6 18.3
2019-Sep-14 04:43 156 2 gusting 6 18.3
2019-Sep-14 04:38 314 2 gusting 6 18.3
2019-Sep-14 04:33 039 0 gusting 4 18.3
2019-Sep-14 04:28 353 0 gusting 5 18.3
2019-Sep-14 04:23 032 0 gusting 5 18.3
2019-Sep-14 04:19 353 3 gusting 6 18.3
2019-Sep-14 04:13 317 1 gusting 7 17.8
2019-Sep-14 04:08 028 2 gusting 7 17.8
2019-Sep-14 04:03 342 2 gusting 7 17.8
2019-Sep-14 03:58 013 3 gusting 7 17.8
2019-Sep-14 03:53 008 3 gusting 6 18.3
2019-Sep-14 03:48 047 0 gusting 6 18.3
2019-Sep-14 03:43 346 0 gusting 5 18.3
2019-Sep-14 03:38 346 1 gusting 4 18.3
2019-Sep-14 03:33 271 18.9
2019-Sep-14 03:28 273 1 gusting 11 19.4
2019-Sep-14 03:23 319 3 gusting 16 20.6
2019-Sep-14 03:18 252 6 gusting 16 22.2
2019-Sep-14 03:13 072 3 gusting 8 22.2
2019-Sep-14 03:08 152 1 gusting 5 22.2
2019-Sep-14 03:03 248 22.2
2019-Sep-14 02:58 342 1 gusting 6 22.2
2019-Sep-14 02:53 029 2 gusting 6 22.2
2019-Sep-14 02:48 006 2 gusting 6 22.2
2019-Sep-14 02:43 009 3 gusting 6 22.2
2019-Sep-14 02:38 015 3 gusting 6 22.2
2019-Sep-14 02:33 326 2 gusting 6 22.2
2019-Sep-14 02:28 016 2 gusting 6 22.2
2019-Sep-14 02:23 053 1 gusting 5 22.2
2019-Sep-14 02:18 008 1 gusting 3 21.7
2019-Sep-14 02:13 022 0 gusting 3 21.7
2019-Sep-14 02:08 354 21.7
2019-Sep-14 02:03 325 0 gusting 3 21.7
2019-Sep-14 01:58 358 21.7
2019-Sep-14 01:53 020 0 gusting 2 21.7
2019-Sep-14 01:48 005 0 gusting 2 21.7
2019-Sep-14 01:43 013 0 gusting 2 21.7
2019-Sep-14 01:38 354 21.7
2019-Sep-14 01:33 338 21.7
2019-Sep-14 01:28 328 21.7
2019-Sep-14 01:23 233 0 gusting 2 21.7
2019-Sep-14 01:18 278 0 gusting 4 21.7
2019-Sep-14 01:13 262 0 gusting 3 21.7
2019-Sep-14 01:08 281 1 gusting 4 21.7
2019-Sep-14 01:03 290 1 gusting 4 21.7
2019-Sep-14 00:58 009 0 gusting 3 21.7
2019-Sep-14 00:53 245 0 gusting 2 21.7
2019-Sep-14 00:48 258 0 gusting 2 21.1
2019-Sep-14 00:43 241 0 gusting 2 21.1
2019-Sep-14 00:38 305 21.1
2019-Sep-14 00:33 231 21.1
2019-Sep-14 00:28 245 21.1
2019-Sep-14 00:23 258 21.1
2019-Sep-14 00:18 256 21.1
2019-Sep-14 00:13 245 21.1
2019-Sep-14 00:08 235 0 gusting 4 21.1
2019-Sep-14 00:03 259 0 gusting 4 21.1
2019-Sep-13 23:58 248 0 gusting 5 21.1
2019-Sep-13 23:53 250 1 gusting 7 21.1
2019-Sep-13 23:48 281 1 gusting 7 21.7
2019-Sep-13 23:43 238 2 gusting 5 21.1
2019-Sep-13 23:38 270 2 gusting 5 21.7
2019-Sep-13 23:33 242 1 gusting 3 21.7
2019-Sep-13 23:28 235 0 gusting 1 21.7
2019-Sep-13 23:23 339 21.7
2019-Sep-13 23:18 018 0 gusting 6 21.7
2019-Sep-13 23:13 346 2 gusting 6 21.7
2019-Sep-13 23:08 335 1 gusting 4 21.7
2019-Sep-13 23:03 323 1 gusting 4 21.7
2019-Sep-13 22:58 334 1 gusting 3 21.7
2019-Sep-13 22:53 016 1 gusting 3 21.7
2019-Sep-13 22:48 333 1 gusting 3 21.7
2019-Sep-13 22:43 020 1 gusting 4 21.7
2019-Sep-13 22:38 006 1 gusting 4 21.7
2019-Sep-13 22:33 337 1 gusting 3 21.7
2019-Sep-13 22:28 005 1 gusting 3 21.7
2019-Sep-13 22:23 004 1 gusting 2 21.7
2019-Sep-13 22:18 335 0 gusting 1 21.7
2019-Sep-13 22:13 012 0 gusting 2 21.7
2019-Sep-13 22:08 358 1 gusting 3 21.7
2019-Sep-13 22:03 328 1 gusting 3 22.2
2019-Sep-13 21:58 351 1 gusting 3 22.2
2019-Sep-13 21:53 339 0 gusting 5 22.8
2019-Sep-13 21:48 346 2 gusting 7 23.3
2019-Sep-13 21:43 026 3 gusting 8 23.3
2019-Sep-13 21:38 006 3 gusting 6 23.3
2019-Sep-13 21:33 350 4 gusting 6 23.3
2019-Sep-13 21:28 316 3 gusting 8 23.3
2019-Sep-13 21:23 006 3 gusting 9 23.3
2019-Sep-13 21:18 174 2 gusting 6 23.3
2019-Sep-13 21:14 337 3 gusting 8 23.3
2019-Sep-13 21:08 089 5 gusting 8 23.3
2019-Sep-13 21:03 334 3 gusting 6 23.3
2019-Sep-13 20:58 075 3 gusting 7 23.3
2019-Sep-13 20:53 046 2 gusting 7 23.3
2019-Sep-13 20:48 332 2 gusting 5 22.8
2019-Sep-13 20:43 008 2 gusting 5 22.8
2019-Sep-13 20:38 071 2 gusting 5 22.2
2019-Sep-13 20:33 029 1 gusting 3 21.7
2019-Sep-13 20:28 297 0 gusting 5 21.7
2019-Sep-13 20:23 008 0 gusting 5 21.1
2019-Sep-13 20:18 354 0 gusting 3 21.1
2019-Sep-13 20:13 354 0 gusting 3 21.1
2019-Sep-13 20:08 323 1 gusting 2 21.1
2019-Sep-13 20:03 358 1 gusting 3 21.1
2019-Sep-13 19:58 026 0 gusting 2 21.1
2019-Sep-13 19:53 342 0 gusting 3 21.1
2019-Sep-13 19:48 344 1 gusting 3 21.1
2019-Sep-13 19:43 006 1 gusting 3 21.1
2019-Sep-13 19:38 348 1 gusting 2 21.1
2019-Sep-13 19:33 006 1 gusting 3 21.1
2019-Sep-13 19:28 359 1 gusting 3 21.7
2019-Sep-13 19:23 022 1 gusting 3 21.7
2019-Sep-13 19:18 008 1 gusting 5 21.7
2019-Sep-13 19:13 358 2 gusting 5 21.7
2019-Sep-13 19:08 350 1 gusting 5 21.7
2019-Sep-13 19:03 027 2 gusting 5 21.7
2019-Sep-13 18:58 015 1 gusting 5 21.7
2019-Sep-13 18:48 038 3 gusting 6 21.7
2019-Sep-13 18:43 354 1 gusting 5 21.7
2019-Sep-13 18:38 022 2 gusting 5 21.7
2019-Sep-13 18:33 067 1 gusting 5 21.7
2019-Sep-13 18:28 097 0 gusting 4 21.7
2019-Sep-13 18:23 018 1 gusting 6 21.7
2019-Sep-13 18:18 125 2 gusting 7 21.1
2019-Sep-13 18:13 013 1 gusting 6 21.7
2019-Sep-13 18:08 126 1 gusting 5 21.7
2019-Sep-13 18:03 067 2 gusting 8 21.7
2019-Sep-13 17:58 328 2 gusting 8 21.7
2019-Sep-13 17:54 072 2 gusting 6 21.7
2019-Sep-13 17:48 068 1 gusting 9 21.7
2019-Sep-13 17:43 142 2 gusting 9 21.7
2019-Sep-13 17:38 019 1 gusting 7 22.2
2019-Sep-13 17:33 012 5 gusting 9 22.2
2019-Sep-13 17:28 117 4 gusting 9 22.2
2019-Sep-13 17:23 108 4 gusting 10 22.2
2019-Sep-13 17:18 106 4 gusting 11 22.2
2019-Sep-13 17:13 015 4 gusting 11 22.2
2019-Sep-13 17:08 044 6 gusting 13 22.8
2019-Sep-13 17:03 018 5 gusting 13 22.8
2019-Sep-13 16:58 018 6 gusting 13 22.8
2019-Sep-13 16:53 049 6 gusting 13 22.8
2019-Sep-13 16:48 132 3 gusting 11 22.8
2019-Sep-13 16:43 026 6 gusting 13 22.8
2019-Sep-13 16:38 302 6 gusting 13 22.8
2019-Sep-13 16:33 309 6 gusting 15 23.3
2019-Sep-13 16:28 053 7 gusting 15 23.3
2019-Sep-13 16:23 110 6 gusting 15 23.9
2019-Sep-13 16:18 063 6 gusting 12 23.9
2019-Sep-13 16:13 276 5 gusting 9 23.9
2019-Sep-13 16:08 332 5 gusting 12 23.9
2019-Sep-13 16:03 084 6 gusting 12 23.3
2019-Sep-13 15:58 284 6 gusting 14 23.3
2019-Sep-13 15:53 079 5 gusting 13 23.3
2019-Sep-13 15:48 033 4 gusting 12 23.3
2019-Sep-13 15:43 038 3 gusting 12 23.3
2019-Sep-13 15:38 061 4 gusting 8 23.3
2019-Sep-13 15:33 289 3 gusting 10 23.3
2019-Sep-13 15:28 044 3 gusting 10 23.3
2019-Sep-13 15:23 020 4 gusting 9 23.3
2019-Sep-13 15:18 339 3 gusting 9 22.8
2019-Sep-13 15:13 352 4 gusting 8 22.8
2019-Sep-13 15:08 290 4 gusting 8 22.8
2019-Sep-13 15:03 113 3 gusting 6 22.8